Location: ?????????
(44.6084°N, 135.4341°E)
Time: 01:23:32
(UTC+00:00)

Daily predictions for brighter satellites

Satellite Brightness Start Highest point End
(mag) Time Altitude Azimuth Time Altitude Azimuth Time Altitude Azimuth
Cosmos 2227 4.3 07:58:59 10° SSW 08:04:44 80° ESE 08:10:31 10° NNE
Cosmos 1025 Rocket 3.7 08:01:53 10° N 08:05:49 32° ENE 08:09:42 10° SE
SAR-Lupe-4 3.7 08:03:03 10° SSE 08:06:31 51° ENE 08:10:01 10° N
Cosmos 2227 Rocket 4.5 08:03:57 10° W 08:07:44 18° NW 08:11:32 10° N
SJ-12 4.2 08:04:15 10° SE 08:07:49 40° ENE 08:11:25 10° N
YAOGAN 1 4.2 08:06:01 10° E 08:08:12 14° ENE 08:10:25 10° NNE
ARIANE 6 FM1 Upper Stage 2.6 08:08:03 10° SSW 08:12:02 64° SE 08:15:58 10° NE
SL-16 R/B 3.1 08:06:20 10° N 08:12:32 65° WNW 08:18:43 10° SSW
IGS 5A 3.6 08:10:33 10° S 08:14:30 76° WSW 08:18:31 10° NNW
Cosmos 1802 Rocket 4.3 08:09:40 10° SSE 08:15:46 49° E 08:21:55 10° NNE
Cosmos 1844 3.8 08:10:38 10° SSW 08:16:23 76° ESE 08:22:11 10° NNE
SL-4 R/B 2.9 08:16:11 10° NW 08:19:10 27° N 08:22:07 11° ENE
Cosmos 1378 Rocket 3.5 08:15:16 10° N 08:19:35 90° NE 08:23:55 10° S
Cosmos 614 Rocket 4.0 08:14:25 10° SSW 08:19:37 89° ESE 08:24:52 10° NNE
Meteor 1-11 4.2 08:16:20 10° N 08:22:08 74° ENE 08:27:47 10° SSE
MOS 1 Rocket 3.7 08:20:14 10° SE 08:24:03 33° ENE 08:27:55 10° N
NOSS 3-4 (A) 4.0 08:17:33 10° NNW 08:24:06 52° NE 08:31:46 10° ESE
NOSS 3-4 (C) 4.0 08:17:38 10° NNW 08:24:10 51° NE 08:31:49 10° ESE
Cosmos 2173 Rocket 4.0 08:20:17 10° S 08:26:33 82° E 08:32:45 10° N
NOSS 3-3 (A) 4.3 08:23:31 10° SW 08:28:39 55° NW 08:34:45 10° NNE
Tsikada Rocket 4.4 08:27:14 10° N 08:33:17 41° ENE 08:39:16 10° SE
Cosmos 1441 Rocket 3.8 08:31:19 10° NNE 08:34:10 26° ENE 08:37:01 10° SE
COSMO-SKYMED 1 3.6 08:31:21 10° NE 08:34:41 23° E 08:37:59 10° SSE
IRS-P3 4.1 08:30:33 10° SSE 08:35:49 69° ENE 08:41:08 10° N
CZ-4C R/B 1.6 08:33:40 10° SSW 08:37:47 84° SE 08:43:01 10° NE
SKYMED 2 4.1 08:33:57 10° NNE 08:37:59 36° E 08:41:59 10° SSE
UNK 4.4 08:34:40 10° N 08:39:11 57° WNW 08:43:41 10° SSW
Cosmos 1908 Rocket 3.5 08:39:53 10° S 08:44:14 70° E 08:48:40 10° NNE
CZ-2D R/B 3.4 08:42:33 10° S 08:45:40 59° W 08:48:49 10° NNW
SPOT 1/Viking Rocket 3.7 08:41:14 10° SE 08:46:08 47° ENE 08:51:05 10° N
ARIANE 5 R/B 2.8 08:42:04 10° S 08:47:01 68° WSW 08:52:00 10° NNW
Cosmos 1300 Rocket 3.9 08:44:41 10° SSE 08:48:50 43° E 08:53:00 10° NNE
Cosmos 1975 Rocket 3.9 08:47:04 10° NNE 08:50:45 27° ENE 08:54:25 10° SE
USA 281 4.1 08:47:07 14° E 08:51:35 28° NE 08:57:01 10° N
SMAP 4.2 08:48:07 10° S 08:52:36 48° W 08:57:08 10° NNW
Cosmos 2221 Rocket 3.6 08:49:34 10° N 08:54:06 85° W 08:58:34 10° S
Cosmos 1140 Rocket 4.4 08:50:05 10° SSE 08:54:24 27° E 08:56:45 19° ENE
Cosmos 2016 Rocket 4.0 08:51:25 10° S 08:57:39 84° E 09:03:59 10° N
Geosat 4.0 08:53:09 10° SE 08:58:03 60° ENE 09:02:59 10° NNW
Cosmos 1340 Rocket 3.9 08:54:28 10° SSW 08:58:10 45° WNW 09:01:54 10° N
Cosmos 1844 Rocket 3.6 08:54:07 10° SW 08:59:27 46° WNW 09:04:50 10° NNE
IRAS Rocket 4.2 08:54:16 10° SSE 08:59:45 61° ENE 09:05:13 10° N
Helios 1A Rocket 2.5 09:00:55 17° NNE 09:03:23 52° E 09:06:41 10° S
Resurs 01 Rocket 3.2 09:05:18 18° NE 09:05:18 18° NE 09:07:10 10° NNE
SJ-7 4.2 09:03:25 10° SSE 09:07:02 55° ENE 09:10:40 10° N
ATLAS 5 CENTAUR R/B 3.0 09:03:50 10° N 09:07:06 21° NE 09:07:17 21° NE
Cosmos 1867 4.1 09:02:39 10° SW 09:08:01 60° NW 09:13:17 11° NNE
ATLAS CENTAUR R/B 0.7 09:06:16 10° SSW 09:09:43 73° ESE 09:11:00 36° NE
Cosmos 1833 Rocket 3.1 09:04:39 10° NNW 09:10:00 42° ENE 09:13:06 23° ESE
SL-19 R/B 4.1 09:06:04 10° SSE 09:11:19 62° ENE 09:16:27 10° N
PSLV R/B 3.3 09:13:11 10° SSE 09:17:14 67° ENE 09:21:16 10° N
Cosmos 2061 Rocket 3.9 09:12:29 10° S 09:18:50 81° E 09:25:09 10° N
Spot 4 Rocket 4.0 09:22:04 10° SSE 09:27:10 85° WSW 09:32:17 10° NNW
Resurs 1-3 3.4 09:27:45 10° SSE 09:32:03 88° ENE 09:36:23 10° NNW
Cosmos 1023 Rocket 4.3 09:32:00 10° S 09:37:09 70° ESE 09:39:25 33° NNE
Tiangong -1.0 09:35:14 10° W 09:37:53 39° SSW 09:37:53 39° SSW
SL-12 R/B(2) 4.4 09:33:39 10° S 09:40:59 48° ESE 09:44:47 32° ENE
Cosmos 921 Rocket 4.1 09:37:53 10° SW 09:41:59 44° WNW 09:46:04 11° N
YAOGAN 1 2.9 09:39:20 10° S 09:43:32 64° WSW 09:47:47 10° NNW
Cosmos 1891 Rocket 4.4 09:38:41 10° S 09:45:01 68° E 09:51:27 10° NNE
NOAA 6 3.9 09:41:52 10° SSE 09:47:02 88° WSW 09:52:13 10° NNW
Cosmos 1269 Rocket 3.9 09:44:14 10° SSW 09:49:29 87° WNW 09:52:10 30° NNE
Cosmos 2082 Rocket 3.8 09:51:00 10° N 09:53:24 20° NNE 09:53:24 20° NNE
SL-4 R/B 3.0 09:53:43 10° WNW 09:55:55 36° NW 09:55:55 36° NW
Cosmos 2278 Rocket 4.0 09:53:22 10° S 09:54:45 17° SSE 09:54:45 17° SSE
Cosmos 1464 Rocket 4.3 09:59:47 10° S 10:11:39 13° NNE 10:12:14 10° NNE
COSMO-SKYMED 1 4.2 10:06:22 10° N 10:10:02 32° WNW 10:13:41 10° SW
DNEPR-1 R/B 4.3 10:15:34 10° NW 10:19:23 57° W 10:19:23 57° W
CZ-4C R/B 4.0 10:23:18 10° WNW 10:26:54 21° NNW 10:28:27 19° N
Cosmos 1943 Rocket 4.0 10:28:20 10° SSW 10:29:55 20° SSW 10:29:55 20° SSW
USA 281 3.4 10:34:01 52° S 10:35:35 69° WSW 10:42:11 10° NNW
ATLAS 2AS CENTAUR R/B 4.4 10:34:43 10° NNW 10:38:26 19° N 10:38:26 19° N
Resurs 01 Rocket 3.9 10:42:43 19° NW 10:42:43 19° NW 10:44:10 10° NNW
ATLAS CENTAUR R/B 4.4 10:43:27 10° WNW 10:43:37 11° WNW 10:43:37 11° WNW
ATLAS 5 CENTAUR R/B 3.9 10:45:25 10° NW 10:46:51 21° NW 10:46:51 21° NW
Cosmos 1833 Rocket 4.2 10:48:50 10° NW 10:53:45 32° WSW 10:54:52 29° SW
